When you browse on this site, cookies collect data to enhance your experience and personalize the content and advertising you see.
Visit our Privacy Policy to learn more. By continuing to use the site, you agree to this use of cookies and data.
EN

Hourly Weather Tirana

Today, 15 July, Wednesday

Time Temperature Precipitation Wind Pressure Humidity
00:00 +21°C° 0 mm 1 mps 752 mmHg 69%
01:00 +21°C° 0 mm 1 mps 752 mmHg 70%
02:00 +21°C° 0 mm 1 mps 752 mmHg 71%
03:00 +20°C° 0 mm 1 mps 752 mmHg 72%
04:00 +20°C° 0 mm 1 mps 752 mmHg 74%
05:00 +22°C° 0 mm 1 mps 752 mmHg 67%
06:00 +24°C° 0 mm 1 mps 752 mmHg 59%
07:00 +26°C° 0 mm 1 mps 753 mmHg 52%
08:00 +28°C° 0 mm 1 mps 753 mmHg 45%
09:00 +29°C° 0 mm 2 mps 753 mmHg 39%
10:00 +31°C° 0 mm 2 mps 753 mmHg 32%
11:00 +33°C° 0 mm 3 mps 753 mmHg 31%
12:00 +33°C° 0 mm 3 mps 753 mmHg 30%
13:00 +33°C° 0 mm 4 mps 753 mmHg 29%
14:00 +33°C° 0 mm 4 mps 752 mmHg 31%
15:00 +31°C° 0 mm 3 mps 752 mmHg 32%
16:00 +31°C° 0 mm 3 mps 752 mmHg 33%
17:00 +29°C° 0 mm 2 mps 752 mmHg 38%
18:00 +27°C° 0 mm 2 mps 752 mmHg 43%
19:00 +25°C° 0 mm 1 mps 752 mmHg 49%
20:00 +24°C° 0 mm 1 mps 752 mmHg 52%
21:00 +23°C° 0 mm 2 mps 753 mmHg 56%
22:00 +23°C° 0 mm 2 mps 753 mmHg 59%
23:00 +21°C° 0.4 mm 2 mps 753 mmHg 60%

Tomorrow, 16 July, Thursday

Time Temperature Precipitation Wind Pressure Humidity
00:00 +21°C° 0.4 mm 2 mps 752 mmHg 60%
01:00 +21°C° 0.4 mm 2 mps 752 mmHg 60%
02:00 +21°C° 0.3 mm 2 mps 752 mmHg 61%
03:00 +21°C° 0.3 mm 2 mps 752 mmHg 62%
04:00 +21°C° 0.3 mm 2 mps 752 mmHg 62%
05:00 +23°C° 0.1 mm 2 mps 752 mmHg 58%
06:00 +25°C° 0.1 mm 2 mps 752 mmHg 53%
07:00 +26°C° 0.1 mm 1 mps 752 mmHg 49%
08:00 +28°C° 0 mm 2 mps 752 mmHg 45%
09:00 +29°C° 0 mm 2 mps 752 mmHg 42%
10:00 +31°C° 0 mm 2 mps 752 mmHg 38%
11:00 +31°C° 0 mm 3 mps 752 mmHg 38%
12:00 +33°C° 0 mm 4 mps 751 mmHg 38%
13:00 +33°C° 0 mm 4 mps 751 mmHg 38%
14:00 +32°C° 0 mm 4 mps 751 mmHg 39%
15:00 +32°C° 0 mm 5 mps 750 mmHg 41%
16:00 +30°C° 0 mm 5 mps 750 mmHg 42%
17:00 +28°C° 0 mm 4 mps 750 mmHg 49%
18:00 +26°C° 0 mm 3 mps 750 mmHg 55%
19:00 +24°C° 0 mm 3 mps 751 mmHg 62%
20:00 +23°C° 0 mm 2 mps 751 mmHg 65%
21:00 +21°C° 0 mm 2 mps 751 mmHg 68%
22:00 +21°C° 0 mm 1 mps 751 mmHg 71%
23:00 +21°C° 0 mm 1 mps 751 mmHg 71%

Day after tomorrow, 17 July, Friday

Time Temperature Precipitation Wind Pressure Humidity
00:00 +21°C° 0 mm 1 mps 751 mmHg 71%
01:00 +21°C° 0 mm 1 mps 751 mmHg 71%
02:00 +20°C° 0 mm 1 mps 750 mmHg 72%
03:00 +20°C° 0 mm 1 mps 750 mmHg 73%
04:00 +20°C° 0 mm 1 mps 750 mmHg 74%
05:00 +22°C° 0 mm 1 mps 750 mmHg 66%
06:00 +24°C° 0 mm 1 mps 750 mmHg 58%
07:00 +26°C° 0 mm 1 mps 750 mmHg 50%
08:00 +28°C° 0 mm 1 mps 750 mmHg 45%
09:00 +30°C° 0 mm 2 mps 750 mmHg 40%
10:00 +32°C° 0 mm 2 mps 749 mmHg 35%
11:00 +34°C° 0 mm 3 mps 749 mmHg 35%
12:00 +34°C° 0 mm 4 mps 749 mmHg 34%
13:00 +34°C° 0 mm 5 mps 749 mmHg 33%
14:00 +34°C° 0 mm 5 mps 749 mmHg 34%
15:00 +33°C° 0 mm 4 mps 748 mmHg 35%
16:00 +32°C° 0 mm 4 mps 748 mmHg 37%
17:00 +29°C° 0 mm 3 mps 748 mmHg 45%
18:00 +27°C° 0 mm 2 mps 748 mmHg 53%
19:00 +25°C° 0 mm 2 mps 749 mmHg 61%
20:00 +24°C° 0 mm 1 mps 749 mmHg 64%
21:00 +23°C° 0 mm 1 mps 749 mmHg 68%
22:00 +22°C° 0 mm 1 mps 749 mmHg 71%
23:00 +22°C° 0 mm 1 mps 749 mmHg 71%

18 July, Saturday

Time Temperature Precipitation Wind Pressure Humidity
00:00 +21°C° 0 mm 1 mps 749 mmHg 71%
01:00 +21°C° 0 mm 1 mps 749 mmHg 71%
02:00 +21°C° 0 mm 1 mps 749 mmHg 71%
03:00 +21°C° 0 mm 1 mps 749 mmHg 71%
04:00 +20°C° 0 mm 1 mps 749 mmHg 71%
05:00 +22°C° 0 mm 1 mps 749 mmHg 63%
06:00 +25°C° 0 mm 1 mps 749 mmHg 55%
07:00 +27°C° 0 mm 1 mps 749 mmHg 48%
08:00 +28°C° 0 mm 2 mps 749 mmHg 44%
09:00 +30°C° 0 mm 2 mps 749 mmHg 39%
10:00 +33°C° 0 mm 3 mps 749 mmHg 35%
11:00 +33°C° 0 mm 4 mps 749 mmHg 35%
12:00 +33°C° 0 mm 5 mps 749 mmHg 35%
13:00 +34°C° 0 mm 5 mps 749 mmHg 35%
14:00 +33°C° 0 mm 5 mps 749 mmHg 38%
15:00 +32°C° 0 mm 5 mps 749 mmHg 40%
16:00 +32°C° 0 mm 5 mps 748 mmHg 43%
17:00 +29°C° 0 mm 5 mps 749 mmHg 52%
18:00 +26°C° 0 mm 4 mps 749 mmHg 62%
19:00 +23°C° 0 mm 4 mps 749 mmHg 71%
20:00 +22°C° 0 mm 3 mps 750 mmHg 76%
21:00 +21°C° 0 mm 3 mps 750 mmHg 82%
22:00 +20°C° 0 mm 2 mps 750 mmHg 87%
23:00 +20°C° 0 mm 2 mps 750 mmHg 88%

19 July, Sunday

Time Temperature Precipitation Wind Pressure Humidity
00:00 +20°C° 0 mm 2 mps 750 mmHg 89%
01:00 +20°C° 0 mm 1 mps 750 mmHg 89%
02:00 +20°C° 0 mm 1 mps 750 mmHg 89%
03:00 +19°C° 0 mm 2 mps 750 mmHg 89%
04:00 +19°C° 0 mm 2 mps 750 mmHg 90%
05:00 +20°C° 0 mm 2 mps 750 mmHg 82%
06:00 +23°C° 0 mm 1 mps 751 mmHg 75%
07:00 +25°C° 0 mm 1 mps 751 mmHg 67%
08:00 +27°C° 0 mm 2 mps 751 mmHg 59%
09:00 +29°C° 0 mm 2 mps 751 mmHg 52%
10:00 +30°C° 0 mm 3 mps 751 mmHg 44%
11:00 +31°C° 0 mm 3 mps 751 mmHg 43%
12:00 +32°C° 0 mm 4 mps 751 mmHg 42%
13:00 +33°C° 0 mm 5 mps 751 mmHg 42%
14:00 +32°C° 0 mm 5 mps 751 mmHg 44%
15:00 +32°C° 0 mm 5 mps 751 mmHg 46%
16:00 +30°C° 0 mm 5 mps 751 mmHg 49%
17:00 +28°C° 0 mm 5 mps 751 mmHg 57%
18:00 +26°C° 0 mm 4 mps 751 mmHg 65%
19:00 +24°C° 0 mm 3 mps 751 mmHg 73%
20:00 +24°C° 0 mm 3 mps 751 mmHg 77%
21:00 +22°C° 0 mm 3 mps 752 mmHg 82%
22:00 +21°C° 0 mm 2 mps 752 mmHg 86%
23:00 +20°C° 0 mm 2 mps 752 mmHg 86%

20 July, Monday

Time Temperature Precipitation Wind Pressure Humidity
00:00 +20°C° 0 mm 2 mps 752 mmHg 86%
01:00 +21°C° 0 mm 1 mps 752 mmHg 86%
02:00 +21°C° 0 mm 1 mps 752 mmHg 86%
03:00 +21°C° 0 mm 1 mps 752 mmHg 85%
04:00 +20°C° 0 mm 1 mps 752 mmHg 85%
05:00 +23°C° 0 mm 1 mps 752 mmHg 76%
06:00 +25°C° 0 mm 1 mps 752 mmHg 67%
07:00 +27°C° 0 mm 1 mps 752 mmHg 58%
08:00 +29°C° 0 mm 2 mps 752 mmHg 51%
09:00 +31°C° 0 mm 2 mps 752 mmHg 44%
10:00 +34°C° 0 mm 3 mps 752 mmHg 36%
11:00 +34°C° 0 mm 4 mps 752 mmHg 35%
12:00 +35°C° 0 mm 5 mps 752 mmHg 33%
13:00 +36°C° 0 mm 6 mps 752 mmHg 31%
14:00 +35°C° 0 mm 6 mps 751 mmHg 34%
15:00 +34°C° 0 mm 6 mps 751 mmHg 37%
16:00 +33°C° 0 mm 6 mps 751 mmHg 39%
17:00 +30°C° 0 mm 5 mps 751 mmHg 46%
18:00 +28°C° 0 mm 4 mps 751 mmHg 52%
19:00 +26°C° 0 mm 3 mps 751 mmHg 58%
20:00 +25°C° 0 mm 2 mps 752 mmHg 61%
21:00 +24°C° 0 mm 2 mps 752 mmHg 64%
22:00 +23°C° 0 mm 1 mps 752 mmHg 67%
23:00 +23°C° 0 mm 1 mps 752 mmHg 67%
Show more